CZ-6A DEB, 54417

Orbit data source: Space-Track

CZ-6A DEB, 54417 is space debris in SSO originally from a launch on Fri, 11 Nov 2022 UTC launched from the Taiyaun Space Center, China (TSC). Debris objects in space refer to the collection of defunct objects orbiting the Earth. Examples of debris include non-operational satellites, rocket bodies, and fragments generated from explosions, collisions, or faulty payload assembly.

Loading next visibility...
Identifier
54417, 2022-151ER
Orbit
SSO
Country
Flag of CNCN / PRC
Related business
Manufacturer
SAST
Mission
Spacecraft
Bus & Motor
Unknown
Mass
Unknown
Launch date (UTC)
2022-11-11 (4 years ago)
Launch vehicle
Unknown
Launch site
Taiyaun Space Center, China (TSC)
Object type
Payload
Rocket body
Debris
Shape & HBR
Unknown shape, 0.1 m
Radar Cross Section
Medium (>0.1 m² and <1 m²)

Expand to show TLE details & history
Last TLE update: 2 days ago

TLE from 2 days ago
0 CZ-6A DEB
1 54417U 22151ER  26171.39078625  .00001188  00000-0  90789-3 0  9993
2 54417  98.9743 134.2024 0162549 113.4890 248.3445 13.89272072182037
Epoch: 2026-06-20T09:22Z
TLE epoch observation values (Epoch: 2026-06-20T09:22:43.932Z)
Latitude
-0.00003°
Longitude
84.91327°
Altitude
979.555 km
Speed
7.339 km/s
True Right ascension
08h 56m 48s
True Declination
0° 00' 00"
Sunlit
Object was in daylight at epoch
Visualization orbit readout
Latitude
Unknown
Longitude
Unknown
Altitude
Unknown
Speed
Unknown
Apparent Right ascension
Unknown
Apparent Declination
Unknown
Sunlit
N/A
Visualization observer readout
Local Sidereal Time
21:33:39
Azimuth
Unknown
Elevation
Unknown
Doppler factor
Unknown
Orbital elements
Apogee altitude
1,047.161 km
Perigee altitude
809.627 km
Semi-major axis
7,306.531 km
Eccentricity
0.01625
Inclination
98.9743°
RAAN
134.2024°
Arg. of periapsis
113.489°
True anomaly
246.62644°
Mean anomaly
248.3445°
Eccentric anomaly
247.48416°
Mean motion
3.47517 °/min
Orbital period
103.59 mins
BSTAR
0.00090789
Loading maneuver chart data...
Computing Atmospheric mass density...
Loading historical data...
Loading historical data...
Loading historical data...
Loading historical data...
Loading historical data...
Loading historical data...
Loading historical data...

Documentation

Showing up to 5 results
|